Back to catalog

CZ-3B R/B

AliveHEO
NORAD 62486·ROCKET BODY·🇨🇳 China

Launched Jan 6, 2025 from Xichang Satellite Launch Center

Loading…

Next Passes (next 24 hours)

TLE

FreshSource: Space-Track

Epoch: Sep 14, 2026, 11:16 UTC

1 62486U 25002B   26257.46997255  .00443411  23159-7  96785-3 0  9996
2 62486  28.4701 319.8245 4671852 182.3894 174.2439  6.40037314 16533

Track CZ-3B R/B in real time with AllMySat

Download on the App Store